| time (UTC) | temp F | wind direction | speed MPH | gust MPH | rain 1hr in | rain 24hr in | rain mn in | humidity % | barometer mb |
| 20260508094548 | 48 | 0 | 0.0 | 0.0 | 0.00 | 0.42 | 0.00 | 97 | 1015.9 |
| 20260508093050 | 49 | 0 | 0.0 | 0.0 | 0.00 | 0.42 | 0.00 | 97 | 1015.8 |
| 20260508091608 | 49 | 0 | 0.0 | 0.0 | 0.00 | 0.42 | 0.00 | 97 | 1015.8 |
| 20260508090052 | 49 | 0 | 0.0 | 0.0 | 0.00 | 0.42 | 0.00 | 97 | 1015.5 |
| 20260508084550 | 49 | 0 | 0.0 | 0.0 | 0.00 | 0.43 | 0.00 | 97 | 1015.4 |
| 20260508083041 | 50 | 0 | 0.0 | 0.0 | 0.00 | 0.43 | 0.00 | 97 | 1015.4 |
| 20260508081548 | 50 | 0 | 0.0 | 0.0 | 0.00 | 0.43 | 0.00 | 97 | 1015.2 |
| 20260508080046 | 51 | 0 | 0.0 | 0.0 | 0.00 | 0.43 | 0.00 | 97 | 1015.2 |
| 20260508074537 | 51 | 0 | 0.0 | 0.0 | 0.00 | 0.44 | 0.00 | 97 | 1015.4 |
| 20260508073049 | 51 | 0 | 0.0 | 0.0 | 0.00 | 0.44 | 0.00 | 97 | 1015.4 |
| 20260508071542 | 52 | 0 | 0.0 | 0.0 | 0.00 | 0.44 | 0.00 | 97 | 1015.2 |
| 20260508070040 | 52 | 0 | 0.0 | 0.0 | 0.00 | 0.44 | 0.00 | 97 | 1015.5 |
| 20260508064541 | 52 | 0 | 0.0 | 0.0 | 0.00 | 0.49 | 0.00 | 97 | 1015.6 |
| 20260508063110 | 52 | 0 | 0.0 | 0.0 | 0.00 | 0.49 | 0.00 | 97 | 1015.5 |
| 20260508061546 | 52 | 0 | 0.0 | 0.0 | 0.00 | 0.49 | 0.00 | 97 | 1015.7 |
| 20260508060045 | 53 | 0 | 0.0 | 0.0 | 0.00 | 0.49 | 0.00 | 97 | 1016.0 |
| 20260508054544 | 53 | 0 | 0.0 | 0.0 | 0.00 | 0.69 | 0.00 | 97 | 1015.9 |
| 20260508053052 | 53 | 0 | 0.0 | 0.0 | 0.00 | 0.69 | 0.00 | 97 | 1016.0 |
| 20260508051605 | 53 | 0 | 0.0 | 0.0 | 0.00 | 0.69 | 0.00 | 97 | 1015.8 |
| 20260508050046 | 54 | 0 | 0.0 | 0.0 | 0.00 | 0.69 | 0.00 | 97 | 1016.0 |
| 20260508044544 | 54 | 0 | 0.0 | 0.0 | 0.00 | 1.70 | 0.00 | 97 | 1016.0 |
| 20260508043043 | 54 | 0 | 0.0 | 0.0 | 0.00 | 1.70 | 0.00 | 97 | 1015.9 |
| 20260508041546 | 55 | 0 | 0.0 | 0.0 | 0.00 | 1.70 | 0.00 | 97 | 1015.6 |
| 20260508040040 | 55 | 0 | 0.0 | 0.0 | 0.00 | 1.70 | 0.00 | 97 | 1015.9 |
| 20260508034547 | 55 | 0 | 0.0 | 0.0 | 0.00 | 1.97 | 1.70 | 97 | 1015.6 |
| 20260508033050 | 56 | 0 | 0.0 | 0.0 | 0.00 | 1.97 | 1.70 | 97 | 1015.7 |
| 20260508031543 | 56 | 0 | 0.0 | 0.0 | 0.00 | 1.97 | 1.70 | 97 | 1015.8 |
| 20260508030051 | 56 | 0 | 0.0 | 0.0 | 0.00 | 1.97 | 1.70 | 97 | 1015.8 |
| 20260508024550 | 57 | 0 | 0.0 | 0.0 | 0.00 | 2.13 | 1.70 | 97 | 1015.7 |
| 20260508023048 | 57 | 0 | 0.0 | 0.0 | 0.00 | 2.13 | 1.70 | 97 | 1015.6 |
| 20260508021549 | 57 | 0 | 0.0 | 0.0 | 0.00 | 2.13 | 1.70 | 97 | 1015.6 |
| 20260508020046 | 58 | 0 | 0.0 | 0.0 | 0.00 | 2.13 | 1.70 | 97 | 1015.4 |
| 20260508014544 | 58 | 0 | 0.0 | 0.0 | 0.00 | 2.13 | 1.70 | 97 | 1015.4 |
| 20260508013043 | 58 | 0 | 0.0 | 0.0 | 0.00 | 2.13 | 1.70 | 97 | 1015.0 |
| 20260508011550 | 59 | 0 | 0.0 | 0.0 | 0.00 | 2.13 | 1.70 | 97 | 1014.8 |
| 20260508010058 | 59 | 0 | 0.0 | 0.0 | 0.00 | 2.13 | 1.70 | 97 | 1014.8 |
| 20260508004545 | 60 | 0 | 0.0 | 0.0 | 0.00 | 2.16 | 1.70 | 97 | 1014.7 |
| 20260508003044 | 60 | 0 | 0.0 | 0.0 | 0.00 | 2.16 | 1.70 | 97 | 1014.3 |
| 20260508001545 | 61 | 0 | 0.0 | 1.0 | 0.00 | 2.16 | 1.70 | 97 | 1014.3 |
| 20260508000047 | 62 | 0 | 0.0 | 2.0 | 0.00 | 2.16 | 1.70 | 97 | 1014.3 |
| 20260507234544 | 63 | 0 | 0.0 | 1.0 | 0.00 | 2.27 | 1.70 | 97 | 1014.2 |
| 20260507233045 | 63 | 0 | 0.0 | 1.0 | 0.00 | 2.27 | 1.70 | 97 | 1013.9 |
| 20260507231543 | 63 | 0 | 0.0 | 2.0 | 0.00 | 2.27 | 1.70 | 97 | 1013.9 |
| 20260507230058 | 63 | 0 | 0.0 | 4.0 | 0.00 | 2.27 | 1.70 | 97 | 1013.9 |
| 20260507224542 | 64 | 141 | 0.0 | 2.0 | 0.00 | 2.52 | 1.70 | 97 | 1013.9 |
| 20260507223115 | 64 | 320 | 0.0 | 3.0 | 0.00 | 2.52 | 1.70 | 97 | 1013.7 |
| 20260507221546 | 64 | 323 | 0.0 | 2.0 | 0.00 | 2.52 | 1.70 | 97 | 1013.5 |
| 20260507220045 | 63 | 81 | 1.0 | 5.0 | 0.00 | 2.52 | 1.70 | 97 | 1013.7 |
| 20260507214552 | 64 | 0 | 0.0 | 3.0 | 0.00 | 2.52 | 1.70 | 97 | 1013.4 |
| 20260507213045 | 64 | 355 | 0.0 | 4.0 | 0.00 | 2.52 | 1.70 | 97 | 1013.4 |
| 20260507211538 | 64 | 84 | 0.0 | 3.0 | 0.00 | 2.52 | 1.70 | 97 | 1013.6 |
| 20260507210052 | 64 | 137 | 0.0 | 2.0 | 0.00 | 2.52 | 1.70 | 97 | 1013.1 |
| 20260507204548 | 63 | 226 | 0.0 | 4.0 | 0.00 | 2.52 | 1.70 | 97 | 1013.4 |
| 20260507203045 | 63 | 276 | 0.0 | 3.0 | 0.00 | 2.52 | 1.70 | 97 | 1013.4 |
| 20260507201549 | 63 | 62 | 0.0 | 3.0 | 0.00 | 2.52 | 1.70 | 97 | 1013.5 |
| 20260507200054 | 64 | 19 | 0.0 | 2.0 | 0.00 | 2.52 | 1.70 | 97 | 1013.5 |
| 20260507194549 | 62 | 66 | 0.0 | 5.0 | 0.00 | 2.52 | 1.70 | 96 | 1013.5 |
| 20260507193045 | 62 | 0 | 0.0 | 2.0 | 0.00 | 2.52 | 1.70 | 96 | 1013.6 |
| 20260507191538 | 62 | 0 | 0.0 | 1.0 | 0.00 | 2.52 | 1.70 | 96 | 1013.4 |
| 20260507190049 | 60 | 0 | 0.0 | 3.0 | 0.00 | 2.52 | 1.70 | 96 | 1013.5 |
| 20260507184543 | 59 | 304 | 1.0 | 4.0 | 0.00 | 2.52 | 1.70 | 96 | 1013.8 |
| 20260507183042 | 60 | 149 | 0.0 | 1.0 | 0.00 | 2.52 | 1.70 | 96 | 1013.8 |
| 20260507181539 | 61 | 251 | 0.0 | 2.0 | 0.00 | 2.52 | 1.70 | 96 | 1013.6 |
| 20260507180048 | 61 | 0 | 0.0 | 3.0 | 0.00 | 2.52 | 1.70 | 96 | 1013.5 |
| 20260507174554 | 61 | 0 | 0.0 | 4.0 | 0.00 | 2.52 | 1.70 | 96 | 1013.8 |
| 20260507173044 | 61 | 53 | 0.0 | 4.0 | 0.00 | 2.52 | 1.70 | 96 | 1013.8 |
| 20260507171556 | 62 | 225 | 1.0 | 5.0 | 0.00 | 2.52 | 1.70 | 96 | 1013.7 |
| 20260507170045 | 63 | 296 | 0.0 | 5.0 | 0.00 | 2.52 | 1.70 | 96 | 1013.5 |
| 20260507164547 | 63 | 106 | 0.0 | 2.0 | 0.00 | 2.52 | 1.70 | 96 | 1013.2 |
| 20260507163044 | 64 | 296 | 0.0 | 7.0 | 0.00 | 2.52 | 1.70 | 96 | 1013.2 |
| 20260507161552 | 65 | 89 | 1.0 | 6.0 | 0.00 | 2.52 | 1.70 | 96 | 1013.1 |
| 20260507160045 | 64 | 0 | 0.0 | 2.0 | 0.00 | 2.52 | 1.70 | 96 | 1013.0 |
| 20260507154546 | 65 | 303 | 0.0 | 2.0 | 0.00 | 2.52 | 1.70 | 96 | 1013.0 |
| 20260507153042 | 64 | 301 | 1.0 | 3.0 | 0.00 | 2.52 | 1.70 | 96 | 1012.8 |
| 20260507151556 | 64 | 295 | 0.0 | 3.0 | 0.00 | 2.52 | 1.70 | 96 | 1012.6 |
| 20260507150052 | 64 | 210 | 0.0 | 2.0 | 0.00 | 2.52 | 1.70 | 96 | 1012.5 |
| 20260507144552 | 63 | 0 | 1.0 | 4.0 | 0.00 | 2.52 | 1.70 | 96 | 1012.6 |
| 20260507143051 | 63 | 283 | 0.0 | 1.0 | 0.01 | 2.52 | 1.70 | 96 | 1012.7 |
| 20260507141542 | 63 | 250 | 0.0 | 2.0 | 0.01 | 2.52 | 1.70 | 96 | 1012.5 |
| 20260507140040 | 63 | 0 | 0.0 | 2.0 | 0.05 | 2.52 | 1.70 | 96 | 1012.6 |
| 20260507134539 | 63 | 0 | 0.0 | 0.0 | 0.14 | 2.52 | 1.70 | 96 | 1012.5 |
| 20260507133047 | 63 | 0 | 0.0 | 1.0 | 0.13 | 2.51 | 1.69 | 96 | 1012.3 |
| 20260507131544 | 63 | 0 | 0.0 | 1.0 | 0.14 | 2.51 | 1.69 | 96 | 1012.5 |
| 20260507130057 | 62 | 0 | 0.0 | 0.0 | 0.11 | 2.46 | 1.64 | 96 | 1012.2 |
| 20260507124557 | 62 | 303 | 1.0 | 2.0 | 0.05 | 2.38 | 1.56 | 96 | 1011.8 |
| 20260507123057 | 62 | 0 | 0.0 | 1.0 | 0.06 | 2.38 | 1.56 | 96 | 1011.2 |
| 20260507121543 | 62 | 295 | 0.0 | 3.0 | 0.08 | 2.36 | 1.55 | 96 | 1012.0 |
| 20260507120040 | 62 | 315 | 1.0 | 4.0 | 0.19 | 2.34 | 1.53 | 96 | 1012.1 |
| 20260507114537 | 62 | 319 | 0.0 | 3.0 | 0.22 | 2.33 | 1.51 | 96 | 1011.5 |
| 20260507113045 | 62 | 0 | 0.0 | 3.0 | 0.21 | 2.32 | 1.50 | 96 | 1010.8 |
| 20260507111544 | 63 | 272 | 0.0 | 3.0 | 0.18 | 2.29 | 1.47 | 96 | 1010.7 |
| 20260507110043 | 63 | 348 | 0.0 | 2.0 | 0.05 | 2.15 | 1.33 | 96 | 1010.4 |
| 20260507104550 | 63 | 0 | 0.0 | 0.0 | 0.01 | 2.10 | 1.29 | 96 | 1009.7 |
| 20260507103044 | 63 | 0 | 0.0 | 0.0 | 0.01 | 2.10 | 1.29 | 96 | 1010.0 |
| 20260507101541 | 63 | 0 | 0.0 | 0.0 | 0.01 | 2.10 | 1.29 | 96 | 1010.2 |
| 20260507100055 | 63 | 0 | 0.0 | 0.0 | 0.00 | 2.09 | 1.28 | 96 | 1010.1 |